Flag for Russia Weather past 2 weeks in Surgut, Russia

Now
16 °F

Clear.


Feels Like: 16 °F
Forecast: 18 / 38 °F
Wind: No wind

Location: Surgut Airport

Current Time: Mar 31, 2015 at 5:33:26 AM

Latest Report: Mar 31, 2015 at 5:00 AM


Visibility: 4 mi

Pressure: 30.24 "Hg

Humidity: 86%

Dew point: 12 °F

Location of SurgutLocation

Historic Weather in Surgut — Graph

°F

Surgut temperature yesterday

Maximum temperature yesterday: 34 °F (at 1:00 PM)
Minimum temperature yesterday: 21 °F (at 12:30 AM)
Average temperature yesterday: 28 °F

Past Weeks' High & Low Weather Summary

 TemperatureHumidityPressure
High41 °F (Mar 20, 2:00 PM)100% (Mar 17, 2:30 PM)30.66 "Hg (Mar 17, 2:30 PM)
Low-11 °F (Mar 28, 5:00 AM)40% (Mar 29, 3:00 PM)29.18 "Hg (Mar 23, 7:00 AM)
Average20 °F71%29.89 "Hg
* Reported Mar 16 4:00 AM — Mar 31 4:30 AM, Surgut, Weather by CustomWeather, © 2015

Note: Actual official high and low records may vary slightly from our data, if they occured in-between our weather recording intervals... More about our weather records

Advertising

Surgut weather history for previous 24 hours

 ConditionsComfort  
Time TempWeatherWind HumidityBarometerVisibility
4:30 AM
Tue, Mar 31
18 °FPassing clouds.No wind86%30.24 "Hg4 mi
4:00 AM19 °FPassing clouds.No wind79%30.24 "Hg4 mi
3:30 AM19 °FPassing clouds.1 mph86%30.24 "Hg4 mi
3:00 AM19 °FPassing clouds.3 mph86%30.24 "Hg4 mi
2:30 AM21 °FPassing clouds.1 mph80%30.21 "Hg4 mi
2:00 AM25 °FPassing clouds.No wind74%30.21 "Hg4 mi
1:30 AM25 °FPassing clouds.No wind74%30.21 "Hg4 mi
1:00 AM27 °FPassing clouds.1 mph69%30.21 "Hg4 mi
12:30 AM27 °FPassing clouds.1 mph69%30.21 "Hg4 mi
12:00 AM27 °FPassing clouds.1 mph69%30.21 "Hg4 mi
11:30 PM
Mon, Mar 30
27 °FPassing clouds.1 mph74%30.21 "Hg4 mi
11:00 PM27 °FPassing clouds.1 mph74%30.21 "Hg4 mi
10:30 PM25 °FPassing clouds.1 mph86%30.21 "Hg4 mi
10:00 PM27 °FPassing clouds.No wind80%30.21 "Hg4 mi
9:30 PM27 °FPassing clouds.No wind80%30.21 "Hg4 mi
9:00 PM27 °FPassing clouds.1 mph80%30.24 "Hg4 mi
8:30 PM28 °FPassing clouds.1 mph80%30.24 "Hg4 mi
8:00 PM30 °FPassing clouds.3 mph75%30.24 "Hg4 mi
7:30 PM32 °FPartly sunny.3 mph69%30.21 "Hg4 mi
7:00 PM32 °FPartly sunny.3 mph75%30.21 "Hg4 mi
6:30 PM32 °FPartly sunny.3 mph75%30.21 "Hg4 mi
6:00 PM34 °FPartly sunny.3 mph70%30.21 "Hg4 mi
5:30 PM34 °FPartly sunny.6 mph70%30.21 "Hg4 mi
5:00 PM34 °FPartly sunny.6 mph70%30.21 "Hg4 mi
4:30 PM34 °FPartly sunny.8 mph70%30.21 "Hg4 mi
4:00 PM34 °FScattered clouds.8 mph70%30.18 "Hg4 mi
3:30 PM34 °FBroken clouds.10 mph70%30.18 "Hg4 mi
3:00 PM34 °FBroken clouds.10 mph70%30.18 "Hg4 mi
2:30 PM34 °FBroken clouds.10 mph70%30.18 "Hg4 mi
2:00 PM34 °FBroken clouds.10 mph70%30.18 "Hg4 mi
1:30 PM34 °FBroken clouds.10 mph70%30.18 "Hg4 mi
1:00 PM34 °FPartly sunny.8 mph65%30.18 "Hg4 mi
12:30 PM32 °FPartly sunny.8 mph69%30.18 "Hg4 mi
12:00 PM32 °FScattered clouds.8 mph75%30.18 "Hg4 mi
11:30 AM30 °FScattered clouds.6 mph69%30.18 "Hg4 mi
11:00 AM30 °FBroken clouds.6 mph64%30.18 "Hg4 mi
10:30 AM28 °FBroken clouds.8 mph69%30.18 "Hg4 mi
10:00 AM28 °FBroken clouds.8 mph64%30.18 "Hg4 mi
9:30 AM27 °FPartly sunny.8 mph69%30.18 "Hg4 mi
9:00 AM25 °FBroken clouds.10 mph69%30.15 "Hg4 mi
8:30 AM25 °FPartly sunny.10 mph63%30.15 "Hg4 mi
7:30 AM23 °FPartly sunny.10 mph63%30.15 "Hg4 mi
7:00 AM23 °FPartly sunny.10 mph58%30.12 "Hg4 mi
6:30 AM23 °FPassing clouds.10 mph58%30.12 "Hg4 mi
6:00 AM23 °FPassing clouds.8 mph58%30.12 "Hg4 mi
5:30 AM21 °FPassing clouds.10 mph63%30.12 "Hg4 mi
5:00 AM21 °FPassing clouds.8 mph58%30.12 "Hg4 mi
Weather by CustomWeather, © 2015

See weather overviewHow to use our weather pages